Content
SEND FEEDBACK

Daily
Averages
Monthly
Summary
Malaysia

KOTA KINABALU, MALAYSIA


Home > Asia > Malaysia
Elevation: 10 feet     Latitude: 05 55N     Longitude: 116 03E

WEATHER
 
SELECT A DAY
Number of Records: 269,497;   Date Range: 8/9/96 - 7/28/14
 
SHARE

PRINT THIS DATA

[ ← Previous Day ]
WEATHER ALMANAC - FEBRUARY 5, 2013
[ Next Day → ]
[ °C ]   °F
Weather ElementAverageHighLow
Temperature82.9 °F90 °F (2:00 pm)75.2 °F (6:30 am)
Dewpoint75.3 °F78.8 °F (2:30 pm)71.6 °F (4:30 am)
Humidity77.7 %94 % (6:30 am)57 % (2:00 pm)
Barometer29.86 in29.92 in (8:30 am)29.80 in (2:30 pm)
Wind Speed5 mph9.2 mph (3:00 pm)
Weather ElementAverage
Visibility6.9 mi
Wind DirectionSE (137.1 °)

Weather ElementTotal
Precipitation---
Cooling Degree Days17.6 (Base 65)
Growing Degree Days32.6 (Base 50)
Averaged from 55 records on February 5, 2013
WEATHER CONDITIONS BREAKOUT
WIND DIRECTION BREAKOUT
WEATHER BY HOUR - FEBRUARY 5, 2013
[ °C ]   °F
Local TimeTemperatureDewpointHumidityBarometerVisibilityWind DirectionWind SpeedGust SpeedPrecipitationEventsConditions
12:30 AM80.6 °F73.4 °F79 %29.89 in6.2 miNE (50°)2.3 mphMostly Cloudy
1:00 AM80.6 °F73.4 °F79 %29.89 in6.2 miSE (130°)3.5 mphMostly Cloudy
1:30 AM78.8 °F75.2 °F89 %29.86 in6.2 miEast (100°)2.3 mphMostly Cloudy
2:00 AM78.0 °F73.0 °F81 %29.87 in10.0 miEast (90°)4.6 mphHaze
2:00 AM78.8 °F73.4 °F83 %29.86 in6.2 miEast (90°)4.6 mphMostly Cloudy
2:30 AM78.8 °F73.4 °F83 %29.86 in6.2 miSE (130°)3.5 mphMostly Cloudy
3:00 AM78.8 °F73.4 °F83 %29.86 in6.2 miESE (120°)4.6 mphMostly Cloudy
3:30 AM77.0 °F73.4 °F89 %29.86 in6.2 miESE (110°)3.5 mphMostly Cloudy
4:00 AM77.0 °F73.4 °F89 %29.86 in6.2 miESE (110°)3.5 mphMostly Cloudy
4:30 AM77.0 °F71.6 °F83 %29.86 in6.2 miEast (90°)3.5 mphMostly Cloudy
5:00 AM76.0 °F72.0 °F85 %29.87 in10.0 miESE (110°)3.5 mphHaze
5:00 AM77.0 °F71.6 °F83 %29.86 in6.2 miESE (110°)3.5 mphMostly Cloudy
5:30 AM77.0 °F73.4 °F89 %29.86 in6.2 miEast (90°)4.6 mphMostly Cloudy
6:00 AM77.0 °F73.4 °F89 %29.86 in6.2 miESE (110°)4.6 mphMostly Cloudy
6:30 AM75.2 °F73.4 °F94 %29.86 in6.2 miESE (110°)2.3 mphMostly Cloudy
7:00 AM77.0 °F73.4 °F89 %29.89 in6.2 miEast (100°)4.6 mphMostly Cloudy
7:30 AM78.8 °F73.4 °F83 %29.89 in6.2 miEast (100°)4.6 mphMostly Cloudy
8:00 AM81.0 °F74.0 °F72 %29.91 in12.0 miESE (110°)4.6 mphHaze
8:00 AM80.6 °F73.4 °F79 %29.89 in6.2 miESE (110°)4.6 mphMostly Cloudy
8:30 AM84.2 °F75.2 °F74 %29.92 in6.2 miEast (90°)4.6 mphMostly Cloudy
9:00 AM84.2 °F75.2 °F74 %29.92 in6.2 miNE (50°)4.6 mphMostly Cloudy
9:30 AM86.0 °F75.2 °F70 %29.92 in6.2 miNNW (340°)2.3 mphMostly Cloudy
10:00 AM86.0 °F75.2 °F70 %29.92 in6.2 miNW (320°)5.8 mphMostly Cloudy
10:30 AM87.8 °F75.2 °F66 %29.89 in6.2 miNNW (340°)4.6 mphMostly Cloudy
11:00 AM87.0 °F76.0 °F62 %29.91 in12.0 miNNW (330°)5.8 mphHaze
11:00 AM87.8 °F75.2 °F66 %29.89 in6.2 miNNW (330°)5.8 mphMostly Cloudy
11:30 AM86.0 °F75.2 °F70 %29.89 in6.2 miNNW (330°)5.8 mphMostly Cloudy
12:00 PM87.8 °F77.0 °F70 %29.86 in6.2 miNNW (330°)6.9 mphMostly Cloudy
12:30 PM89.6 °F75.2 °F62 %29.86 in6.2 miNorth (350°)6.9 mphMostly Cloudy
1:00 PM89.6 °F77.0 °F66 %29.86 in6.2 miNNW (340°)8.1 mphMostly Cloudy
1:30 PM89.6 °F75.2 °F62 %29.83 in6.2 miNorth (360°)6.9 mphMostly Cloudy
2:00 PM90.0 °F77.0 °F57 %29.83 in12.0 miNorth6.9 mphHaze
2:00 PM89.6 °F77.0 °F66 %29.83 in6.2 miNorth (360°)6.9 mphMostly Cloudy
2:30 PM87.8 °F78.8 °F75 %29.80 in6.2 miNorth (350°)8.1 mphMostly Cloudy
3:00 PM89.6 °F77.0 °F66 %29.80 in6.2 miNNE (20°)9.2 mphMostly Cloudy
3:30 PM87.8 °F77.0 °F70 %29.80 in6.2 miNorth (10°)6.9 mphMostly Cloudy
4:00 PM87.8 °F77.0 °F70 %29.80 in6.2 miNNE (20°)9.2 mphMostly Cloudy
4:30 PM87.8 °F77.0 °F70 %29.80 in6.2 miNorth (10°)9.2 mphMostly Cloudy
5:00 PM86.0 °F77.0 °F69 %29.81 in12.0 miNNE (20°)9.2 mphHaze
5:00 PM86.0 °F77.0 °F74 %29.80 in6.2 miNNE (20°)9.2 mphMostly Cloudy
5:30 PM86.0 °F77.0 °F74 %29.80 in6.2 miNE (50°)8.1 mphMostly Cloudy
6:00 PM84.2 °F77.0 °F79 %29.80 in6.2 miNE (50°)5.8 mphMostly Cloudy
6:30 PM84.2 °F77.0 °F79 %29.83 in6.2 miENE (60°)8.1 mphMostly Cloudy
7:00 PM84.2 °F77.0 °F79 %29.83 in6.2 miEast (80°)5.8 mphMostly Cloudy
7:30 PM84.2 °F77.0 °F79 %29.83 in6.2 miNE (40°)1.2 mphMostly Cloudy
8:00 PM83.0 °F76.0 °F74 %29.86 in10.0 miEast (90°)3.5 mphHaze
8:00 PM84.2 °F75.2 °F74 %29.83 in6.2 miEast (90°)3.5 mphMostly Cloudy
8:30 PM82.4 °F75.2 °F79 %29.86 in6.2 miNE (50°)2.3 mphMostly Cloudy
9:00 PM82.4 °F77.0 °F84 %29.86 in6.2 miENE (60°)1.2 mphMostly Cloudy
9:30 PM82.4 °F77.0 °F84 %29.86 in6.2 miESE (110°)2.3 mphMostly Cloudy
10:00 PM80.6 °F77.0 °F89 %29.89 in6.2 miESE (120°)3.5 mphMostly Cloudy
10:30 PM80.6 °F77.0 °F89 %29.86 in6.2 miESE (120°)3.5 mphMostly Cloudy
11:00 PM79.0 °F76.0 °F90 %29.89 in10.0 miESE (110°)4.6 mphHaze
11:00 PM78.8 °F77.0 °F94 %29.89 in6.2 miESE (110°)4.6 mphMostly Cloudy
11:30 PM78.8 °F77.0 °F94 %29.86 in6.2 miESE (110°)3.5 mphMostly Cloudy
Hourly data recorded from WBKK, located miles away from Kota Kinabalu, Malaysia







STORIES FROM OUR PARTNERS